| time (UTC) | temp F | wind direction | speed knots | gust knots | rain 1hr in | rain 24hr in | rain mn in | humidity % | barometer mb |
| 20260505004523 | 70 | 186 | 3.5 | 5.2 | 0.00 | 0.00 | 0.00 | 62 | 1015.2 |
| 20260505004020 | 70 | 188 | 3.5 | 5.2 | 0.00 | 0.00 | 0.00 | 61 | 1015.1 |
| 20260505003517 | 71 | 181 | 3.5 | 6.1 | 0.00 | 0.00 | 0.00 | 61 | 1015.0 |
| 20260505003015 | 71 | 177 | 5.2 | 6.1 | 0.00 | 0.00 | 0.00 | 60 | 1015.1 |
| 20260505002515 | 71 | 170 | 4.3 | 6.1 | 0.00 | 0.00 | 0.00 | 58 | 1015.0 |
| 20260505002014 | 72 | 186 | 4.3 | 7.0 | 0.00 | 0.00 | 0.00 | 58 | 1015.1 |
| 20260505001511 | 72 | 175 | 5.2 | 7.0 | 0.00 | 0.00 | 0.00 | 57 | 1015.0 |
| 20260505001008 | 72 | 163 | 5.2 | 6.1 | 0.00 | 0.00 | 0.00 | 57 | 1015.2 |
| 20260505000506 | 73 | 178 | 4.3 | 6.1 | 0.00 | 0.00 | 0.00 | 57 | 1015.4 |
| 20260505000003 | 73 | 190 | 5.2 | 7.0 | 0.00 | 0.00 | 0.00 | 55 | 1015.5 |
| 20260504235500 | 74 | 187 | 6.1 | 7.8 | 0.00 | 0.00 | 0.00 | 54 | 1015.4 |
| 20260504234956 | 74 | 200 | 7.0 | 7.8 | 0.00 | 0.00 | 0.00 | 53 | 1015.4 |
| 20260504234453 | 74 | 193 | 7.0 | 7.8 | 0.00 | 0.00 | 0.00 | 53 | 1015.7 |
| 20260504233950 | 74 | 190 | 4.3 | 6.1 | 0.00 | 0.00 | 0.00 | 52 | 1015.5 |
| 20260504233445 | 74 | 211 | 4.3 | 7.0 | 0.00 | 0.00 | 0.00 | 52 | 1015.7 |
| 20260504232943 | 74 | 186 | 4.3 | 7.8 | 0.00 | 0.00 | 0.00 | 52 | 1015.8 |
| 20260504232440 | 75 | 203 | 5.2 | 8.7 | 0.00 | 0.00 | 0.00 | 50 | 1015.9 |
| 20260504231937 | 75 | 181 | 7.0 | 8.7 | 0.00 | 0.00 | 0.00 | 50 | 1015.9 |
| 20260504231433 | 75 | 218 | 4.3 | 7.0 | 0.00 | 0.00 | 0.00 | 51 | 1016.0 |
| 20260504230929 | 75 | 214 | 5.2 | 8.7 | 0.00 | 0.00 | 0.00 | 51 | 1015.9 |
| 20260504230426 | 75 | 200 | 5.2 | 7.8 | 0.00 | 0.00 | 0.00 | 50 | 1016.1 |
| 20260504225926 | 76 | 159 | 6.1 | 8.7 | 0.00 | 0.00 | 0.00 | 48 | 1016.2 |
| 20260504225422 | 76 | 229 | 4.3 | 7.8 | 0.00 | 0.00 | 0.00 | 49 | 1016.1 |
| 20260504224919 | 76 | 181 | 6.1 | 7.8 | 0.00 | 0.00 | 0.00 | 48 | 1016.3 |
| 20260504224415 | 76 | 179 | 5.2 | 7.8 | 0.00 | 0.00 | 0.00 | 47 | 1016.3 |
| 20260504223913 | 76 | 202 | 4.3 | 6.1 | 0.00 | 0.00 | 0.00 | 47 | 1016.3 |
| 20260504223408 | 76 | 196 | 4.3 | 7.8 | 0.00 | 0.00 | 0.00 | 48 | 1016.2 |
| 20260504222904 | 76 | 195 | 6.1 | 8.7 | 0.00 | 0.00 | 0.00 | 47 | 1016.2 |
| 20260504222402 | 76 | 192 | 7.0 | 7.8 | 0.00 | 0.00 | 0.00 | 47 | 1016.1 |
| 20260504221900 | 77 | 200 | 6.1 | 8.7 | 0.00 | 0.00 | 0.00 | 49 | 1016.2 |
| 20260504221356 | 76 | 184 | 5.2 | 7.0 | 0.00 | 0.00 | 0.00 | 49 | 1016.5 |
| 20260504220854 | 76 | 197 | 6.1 | 9.6 | 0.00 | 0.00 | 0.00 | 47 | 1016.3 |
| 20260504220350 | 76 | 199 | 7.0 | 9.6 | 0.00 | 0.00 | 0.00 | 47 | 1016.4 |
| 20260504215847 | 77 | 212 | 5.2 | 8.7 | 0.00 | 0.00 | 0.00 | 46 | 1016.5 |
| 20260504215343 | 77 | 205 | 4.3 | 8.7 | 0.00 | 0.00 | 0.00 | 46 | 1016.6 |
| 20260504214839 | 77 | 200 | 6.1 | 7.0 | 0.00 | 0.00 | 0.00 | 45 | 1016.4 |
| 20260504214337 | 77 | 177 | 7.8 | 8.7 | 0.00 | 0.00 | 0.00 | 45 | 1016.6 |
| 20260504213834 | 78 | 184 | 7.8 | 11.3 | 0.00 | 0.00 | 0.00 | 44 | 1016.4 |
| 20260504213329 | 77 | 214 | 5.2 | 6.1 | 0.00 | 0.00 | 0.00 | 44 | 1016.6 |
| 20260504212827 | 77 | 210 | 7.0 | 8.7 | 0.00 | 0.00 | 0.00 | 44 | 1017.2 |
| 20260504212323 | 77 | 236 | 6.1 | 7.8 | 0.00 | 0.00 | 0.00 | 46 | 1016.9 |
| 20260504211821 | 77 | 181 | 7.0 | 11.3 | 0.00 | 0.00 | 0.00 | 47 | 1017.0 |
| 20260504211317 | 76 | 180 | 7.0 | 8.7 | 0.00 | 0.00 | 0.00 | 46 | 1016.7 |
| 20260504210814 | 77 | 223 | 5.2 | 12.2 | 0.00 | 0.00 | 0.00 | 46 | 1016.8 |
| 20260504210311 | 77 | 207 | 7.8 | 11.3 | 0.00 | 0.00 | 0.00 | 45 | 1016.8 |
| 20260504205809 | 77 | 194 | 4.3 | 7.0 | 0.00 | 0.00 | 0.00 | 45 | 1016.9 |
| 20260504205306 | 76 | 190 | 5.2 | 11.3 | 0.00 | 0.00 | 0.00 | 47 | 1017.0 |
| 20260504204804 | 76 | 179 | 7.8 | 8.7 | 0.00 | 0.00 | 0.00 | 46 | 1016.9 |
| 20260504204302 | 77 | 168 | 7.0 | 11.3 | 0.00 | 0.00 | 0.00 | 44 | 1017.1 |
| 20260504203801 | 77 | 191 | 7.8 | 12.2 | 0.00 | 0.00 | 0.00 | 49 | 1017.4 |
| 20260504203258 | 77 | 192 | 4.3 | 6.1 | 0.00 | 0.00 | 0.00 | 46 | 1017.2 |
| 20260504202758 | 77 | 226 | 4.3 | 7.8 | 0.00 | 0.00 | 0.00 | 44 | 1017.3 |
| 20260504202256 | 78 | 191 | 7.8 | 11.3 | 0.00 | 0.00 | 0.00 | 46 | 1017.4 |
| 20260504201752 | 77 | 201 | 6.1 | 9.6 | 0.00 | 0.00 | 0.00 | 47 | 1017.5 |
| 20260504201250 | 77 | 200 | 7.8 | 9.6 | 0.00 | 0.00 | 0.00 | 45 | 1017.6 |
| 20260504200748 | 77 | 185 | 7.0 | 11.3 | 0.00 | 0.00 | 0.00 | 46 | 1017.8 |
| 20260504200243 | 78 | 190 | 4.3 | 7.8 | 0.00 | 0.00 | 0.00 | 45 | 1017.7 |
| 20260504195740 | 77 | 175 | 3.5 | 7.0 | 0.00 | 0.00 | 0.00 | 44 | 1017.8 |
| 20260504195236 | 77 | 177 | 5.2 | 8.7 | 0.00 | 0.00 | 0.00 | 43 | 1018.0 |
| 20260504194733 | 77 | 179 | 3.5 | 5.2 | 0.00 | 0.00 | 0.00 | 49 | 1018.1 |
| 20260504194229 | 77 | 182 | 7.0 | 11.3 | 0.00 | 0.00 | 0.00 | 47 | 1018.2 |
| 20260504193726 | 77 | 217 | 5.2 | 12.2 | 0.00 | 0.00 | 0.00 | 43 | 1018.2 |
| 20260504193223 | 77 | 218 | 5.2 | 9.6 | 0.00 | 0.00 | 0.00 | 46 | 1018.4 |
| 20260504192721 | 77 | 170 | 7.0 | 11.3 | 0.00 | 0.00 | 0.00 | 43 | 1018.2 |
| 20260504192219 | 77 | 187 | 7.8 | 9.6 | 0.00 | 0.00 | 0.00 | 44 | 1018.4 |
| 20260504191718 | 77 | 180 | 10.4 | 13.0 | 0.00 | 0.00 | 0.00 | 48 | 1018.5 |
| 20260504191214 | 77 | 239 | 5.2 | 13.9 | 0.00 | 0.00 | 0.00 | 47 | 1018.6 |
| 20260504190709 | 77 | 179 | 4.3 | 8.7 | 0.00 | 0.00 | 0.00 | 47 | 1018.6 |
| 20260504190206 | 77 | 222 | 4.3 | 9.6 | 0.00 | 0.00 | 0.00 | 46 | 1018.6 |
| 20260504185703 | 77 | 162 | 8.7 | 11.3 | 0.00 | 0.00 | 0.00 | 43 | 1018.8 |
| 20260504185159 | 76 | 186 | 13.0 | 14.8 | 0.00 | 0.00 | 0.00 | 45 | 1018.8 |
| 20260504184655 | 76 | 187 | 7.8 | 8.7 | 0.00 | 0.00 | 0.00 | 49 | 1018.8 |
| 20260504184150 | 76 | 161 | 6.1 | 8.7 | 0.00 | 0.00 | 0.00 | 46 | 1018.7 |
| 20260504183648 | 76 | 180 | 5.2 | 12.2 | 0.00 | 0.00 | 0.00 | 47 | 1018.8 |
| 20260504183145 | 77 | 172 | 10.4 | 13.0 | 0.00 | 0.00 | 0.00 | 46 | 1019.0 |
| 20260504182643 | 77 | 183 | 6.1 | 7.0 | 0.00 | 0.00 | 0.00 | 46 | 1018.7 |
| 20260504182140 | 76 | 179 | 7.0 | 9.6 | 0.00 | 0.00 | 0.00 | 44 | 1018.7 |
| 20260504181637 | 76 | 166 | 10.4 | 13.0 | 0.00 | 0.00 | 0.00 | 45 | 1018.9 |
| 20260504181135 | 77 | 180 | 8.7 | 9.6 | 0.00 | 0.00 | 0.00 | 44 | 1019.0 |
| 20260504180634 | 77 | 223 | 6.1 | 9.6 | 0.00 | 0.00 | 0.00 | 47 | 1018.9 |
| 20260504180132 | 76 | 172 | 4.3 | 7.8 | 0.00 | 0.00 | 0.00 | 44 | 1018.9 |
| 20260504175629 | 76 | 192 | 11.3 | 14.8 | 0.00 | 0.00 | 0.00 | 46 | 1019.4 |
| 20260504175125 | 77 | 190 | 8.7 | 9.6 | 0.00 | 0.00 | 0.00 | 45 | 1019.1 |
| 20260504174624 | 76 | 191 | 6.1 | 8.7 | 0.00 | 0.00 | 0.00 | 48 | 1019.4 |
| 20260504174120 | 76 | 190 | 7.8 | 8.7 | 0.00 | 0.00 | 0.00 | 46 | 1019.3 |
| 20260504173617 | 76 | 175 | 8.7 | 9.6 | 0.00 | 0.00 | 0.00 | 46 | 1019.6 |
| 20260504173115 | 76 | 176 | 9.6 | 9.6 | 0.00 | 0.00 | 0.00 | 44 | 1019.6 |
| 20260504172611 | 76 | 162 | 8.7 | 9.6 | 0.00 | 0.00 | 0.00 | 46 | 1019.5 |
| 20260504172108 | 76 | 205 | 4.3 | 6.1 | 0.00 | 0.00 | 0.00 | 46 | 1019.8 |
| 20260504171604 | 76 | 159 | 6.1 | 13.0 | 0.00 | 0.00 | 0.00 | 43 | 1019.6 |
| 20260504171101 | 76 | 165 | 6.1 | 8.7 | 0.00 | 0.00 | 0.00 | 45 | 1019.7 |
| 20260504170556 | 76 | 190 | 11.3 | 14.8 | 0.00 | 0.00 | 0.00 | 45 | 1019.8 |
| 20260504150941 | 73 | 174 | 6.1 | 7.8 | 0.00 | 0.00 | 0.00 | 46 | 1020.3 |
| 20260504150437 | 73 | 205 | 7.0 | 12.2 | 0.00 | 0.00 | 0.00 | 44 | 1020.2 |
| 20260504140904 | 70 | 192 | 5.2 | 7.8 | 0.00 | 0.00 | 0.00 | 59 | 1020.1 |
| 20260504140400 | 69 | 192 | 3.5 | 6.1 | 0.00 | 0.00 | 0.00 | 64 | 1020.0 |
| 20260504130325 | 59 | 145 | 0.0 | 0.0 | 0.00 | 0.00 | 0.00 | 99 | 1020.0 |
| 20260504120248 | 52 | 144 | 0.0 | 0.0 | 0.00 | 0.00 | 0.00 | 99 | 1019.7 |
| 20260504110716 | 51 | 144 | 0.0 | 0.0 | 0.00 | 0.00 | 0.00 | 98 | 1019.3 |
| 20260504110212 | 51 | 144 | 0.0 | 0.0 | 0.00 | 0.00 | 0.00 | 98 | 1019.3 |
| 20260504100136 | 53 | 144 | 0.0 | 0.0 | 0.00 | 0.00 | 0.00 | 98 | 1019.3 |
| 20260504081529 | 53 | 144 | 0.0 | 0.0 | 0.00 | 0.00 | 0.00 | 97 | 1020.0 |
| 20260504081025 | 54 | 144 | 0.0 | 0.0 | 0.00 | 0.00 | 0.00 | 97 | 1020.2 |
| 20260504080521 | 54 | 144 | 0.0 | 0.0 | 0.00 | 0.00 | 0.00 | 97 | 1020.3 |
| 20260504050334 | 56 | 144 | 0.0 | 0.0 | 0.00 | 0.00 | 0.00 | 90 | 1021.0 |
| 20260504045831 | 57 | 144 | 0.0 | 0.0 | 0.00 | 0.00 | 0.00 | 89 | 1021.0 |
| 20260504045326 | 57 | 144 | 0.0 | 0.0 | 0.00 | 0.00 | 0.00 | 88 | 1020.8 |
| 20260504044823 | 57 | 144 | 0.0 | 0.9 | 0.00 | 0.00 | 0.00 | 88 | 1021.0 |
| 20260504044321 | 57 | 144 | 0.0 | 0.0 | 0.00 | 0.00 | 0.00 | 87 | 1020.9 |
| 20260504043818 | 57 | 144 | 0.0 | 0.0 | 0.00 | 0.00 | 0.00 | 87 | 1021.1 |
| 20260504043315 | 58 | 144 | 0.0 | 0.0 | 0.00 | 0.00 | 0.00 | 86 | 1021.2 |
| 20260504042812 | 58 | 144 | 0.0 | 0.0 | 0.00 | 0.00 | 0.00 | 86 | 1021.4 |
| 20260504042308 | 58 | 144 | 0.9 | 0.9 | 0.00 | 0.00 | 0.00 | 87 | 1021.2 |
| 20260504041805 | 58 | 144 | 0.9 | 0.9 | 0.00 | 0.00 | 0.00 | 86 | 1021.5 |
| 20260504041301 | 58 | 144 | 0.0 | 0.0 | 0.00 | 0.00 | 0.00 | 87 | 1021.5 |
| 20260504040757 | 58 | 144 | 0.0 | 0.0 | 0.00 | 0.00 | 0.00 | 86 | 1021.5 |
| 20260504040255 | 58 | 144 | 0.0 | 0.0 | 0.00 | 0.00 | 0.00 | 84 | 1021.4 |
| 20260504035750 | 58 | 144 | 0.0 | 0.0 | 0.00 | 0.00 | 0.00 | 84 | 1021.6 |
| 20260504035248 | 59 | 144 | 0.0 | 0.0 | 0.00 | 0.00 | 0.00 | 83 | 1021.3 |
| 20260504034745 | 59 | 144 | 0.0 | 0.0 | 0.00 | 0.00 | 0.00 | 84 | 1021.3 |
| 20260504034242 | 59 | 144 | 0.0 | 0.0 | 0.00 | 0.00 | 0.00 | 82 | 1021.3 |
| 20260504033740 | 60 | 144 | 0.0 | 0.0 | 0.00 | 0.00 | 0.00 | 81 | 1021.4 |
| 20260504033237 | 60 | 144 | 0.9 | 0.9 | 0.00 | 0.00 | 0.00 | 83 | 1021.3 |
| 20260504032734 | 59 | 144 | 0.0 | 0.0 | 0.00 | 0.00 | 0.00 | 79 | 1021.7 |
| 20260504032231 | 60 | 145 | 0.0 | 0.0 | 0.00 | 0.00 | 0.00 | 79 | 1021.4 |
| 20260504031728 | 61 | 145 | 0.0 | 0.0 | 0.00 | 0.00 | 0.00 | 78 | 1021.3 |
| 20260504031225 | 62 | 145 | 0.0 | 0.0 | 0.00 | 0.00 | 0.00 | 76 | 1021.4 |
| 20260504030721 | 62 | 145 | 0.9 | 0.9 | 0.00 | 0.00 | 0.00 | 74 | 1021.4 |
| 20260504030219 | 62 | 155 | 0.9 | 1.7 | 0.00 | 0.00 | 0.00 | 72 | 1021.6 |
| 20260504025715 | 63 | 145 | 0.9 | 1.7 | 0.00 | 0.00 | 0.00 | 73 | 1021.3 |
| 20260504025211 | 63 | 145 | 1.7 | 1.7 | 0.00 | 0.00 | 0.00 | 70 | 1021.4 |
| 20260504024709 | 62 | 294 | 0.9 | 1.7 | 0.00 | 0.00 | 0.00 | 74 | 1021.4 |
| 20260504024205 | 62 | 296 | 0.0 | 0.9 | 0.00 | 0.00 | 0.00 | 74 | 1021.4 |
| 20260504023702 | 61 | 294 | 0.9 | 0.9 | 0.00 | 0.00 | 0.00 | 77 | 1021.5 |
| 20260504023158 | 61 | 294 | 1.7 | 1.7 | 0.00 | 0.00 | 0.00 | 77 | 1021.2 |
| 20260504022654 | 61 | 298 | 0.0 | 0.9 | 0.00 | 0.00 | 0.00 | 80 | 1021.4 |
| 20260504022150 | 61 | 310 | 0.0 | 0.0 | 0.00 | 0.00 | 0.00 | 80 | 1021.4 |
| 20260504021648 | 60 | 298 | 0.0 | 0.9 | 0.00 | 0.00 | 0.00 | 79 | 1021.2 |
| 20260504021145 | 61 | 296 | 0.9 | 0.9 | 0.00 | 0.00 | 0.00 | 83 | 1021.4 |
| 20260504020642 | 61 | 294 | 0.9 | 0.9 | 0.00 | 0.00 | 0.00 | 85 | 1021.0 |
| 20260504020137 | 61 | 294 | 0.0 | 0.0 | 0.00 | 0.00 | 0.00 | 79 | 1021.1 |
| 20260504015635 | 62 | 294 | 0.0 | 0.0 | 0.00 | 0.00 | 0.00 | 77 | 1021.0 |
| 20260504015131 | 62 | 294 | 0.0 | 0.0 | 0.00 | 0.00 | 0.00 | 78 | 1020.9 |
| 20260504014626 | 62 | 294 | 0.0 | 0.0 | 0.00 | 0.00 | 0.00 | 77 | 1020.6 |
| 20260504014124 | 62 | 294 | 0.0 | 0.0 | 0.00 | 0.00 | 0.00 | 73 | 1020.8 |
| 20260504013621 | 63 | 294 | 0.0 | 0.0 | 0.00 | 0.00 | 0.00 | 72 | 1020.6 |
| 20260504013118 | 63 | 294 | 0.0 | 0.0 | 0.00 | 0.00 | 0.00 | 70 | 1020.4 |
| 20260504012616 | 63 | 294 | 0.0 | 0.9 | 0.00 | 0.00 | 0.00 | 69 | 1020.3 |
| 20260504012113 | 64 | 294 | 0.0 | 0.0 | 0.00 | 0.00 | 0.00 | 69 | 1020.3 |
| 20260504011610 | 64 | 294 | 0.0 | 0.9 | 0.00 | 0.00 | 0.00 | 67 | 1020.6 |
| 20260504011106 | 65 | 293 | 0.0 | 0.0 | 0.00 | 0.00 | 0.00 | 64 | 1020.4 |
| 20260504010602 | 65 | 293 | 0.0 | 0.0 | 0.00 | 0.00 | 0.00 | 61 | 1020.2 |
| 20260504010058 | 66 | 293 | 0.0 | 0.0 | 0.00 | 0.00 | 0.00 | 62 | 1020.2 |
| 20260504005555 | 66 | 293 | 0.0 | 0.0 | 0.00 | 0.00 | 0.00 | 62 | 1020.2 |
| 20260504005052 | 67 | 293 | 0.0 | 0.0 | 0.00 | 0.00 | 0.00 | 59 | 1020.2 |